Flag for U.S.A. Weather past 2 weeks in Downey, California, U.S.A.

Now
62 °F

Overcast.


Feels Like: 62 °F
Forecast: 59 / 75 °F
Wind: 6 mph from Northwest

Location: Long Beach Airport

Current Time: May 27, 2015 at 3:01:27 AM

Latest Report: May 27, 2015 at 1:53 AM


Visibility: 10 mi

Pressure: 29.98 "Hg

Humidity: 75%

Dew point: 54 °F

Location of DowneyLocation

Historic Weather in Downey — Graph

°F

Downey temperature yesterday

Maximum temperature yesterday: 70 °F (at 2:53 PM)
Minimum temperature yesterday: 62 °F (at 8:53 PM)
Average temperature yesterday: 65 °F

Past Weeks' High & Low Weather Summary

 TemperatureHumidityPressure
High70 °F (May 17, 1:53 PM)87% (May 14, 12:53 PM)30.09 "Hg (May 14, 12:53 PM)
Low55 °F (May 16, 4:53 AM)44% (May 21, 1:53 PM)29.83 "Hg (May 15, 4:53 PM)
Average63 °F68%29.97 "Hg
* Reported May 12 1:53 AM — May 27 1:53 AM, Downey, Weather by CustomWeather, © 2015

Note: Actual official high and low records may vary slightly from our data, if they occured in-between our weather recording intervals... More about our weather records

Advertising

Downey weather history for previous 24 hours

 ConditionsComfort  
Time TempWeatherWind HumidityBarometerVisibility
1:53 AM
Wed, May 27
62 °FOvercast.6 mph75%29.98 "Hg10 mi
12:53 AM62 °FOvercast.6 mph75%29.99 "Hg10 mi
11:53 PM
Tue, May 26
62 °FOvercast.5 mph75%29.99 "Hg10 mi
10:53 PM62 °FOvercast.5 mph75%29.99 "Hg10 mi
9:53 PM62 °FOvercast.5 mph75%29.99 "Hg10 mi
8:53 PM62 °FOvercast.7 mph75%29.98 "Hg10 mi
7:53 PM63 °FOvercast.10 mph75%29.97 "Hg10 mi
6:53 PM64 °FPartly sunny.10 mph70%29.96 "Hg10 mi
5:53 PM66 °FPassing clouds.13 mph65%29.96 "Hg10 mi
4:53 PM69 °FSunny.12 mph61%29.95 "Hg10 mi
3:53 PM70 °FOvercast.9 mph59%29.96 "Hg10 mi
2:53 PM70 °FOvercast.6 mph59%29.97 "Hg10 mi
1:53 PM68 °FOvercast.5 mph63%29.98 "Hg10 mi
12:53 PM69 °FOvercast.10 mph61%29.99 "Hg10 mi
11:53 AM68 °FOvercast.6 mph63%30.01 "Hg10 mi
10:53 AM65 °FOvercast.6 mph70%30.00 "Hg10 mi
9:53 AM65 °FMostly cloudy.5 mph70%29.99 "Hg10 mi
8:53 AM64 °FMore clouds than sun.No wind73%29.99 "Hg10 mi
7:53 AM63 °FOvercast.No wind73%29.99 "Hg10 mi
6:53 AM63 °FOvercast.No wind73%29.99 "Hg10 mi
5:53 AM63 °FOvercast.5 mph73%29.98 "Hg10 mi
4:53 AM63 °FOvercast.3 mph75%29.98 "Hg10 mi
3:53 AM63 °FOvercast.7 mph73%29.97 "Hg10 mi
Weather by CustomWeather, © 2015

See weather overviewHow to use our weather pages